Find Starlink 6034

NORAD ID: 56324 Int'l Des: 2023-058 Owner: SPXS Country: US Constellation: starlink operational
LEOCIRCULARRETROGRADESSO

現在のビュー

3D地球を読み込み中...

About Starlink 6034

Starlink 6034 (NORAD 56324) is a starlink constellation satellite (v1.5) launched Apr 27, 2023 by SPXS of US. It operates in LEO, CIRCULAR, RETROGRADE, SSO orbit with a mass of 300.00 kg.

Starlink 6034について

説明を読み込み中...

次回通過

Passes for default location (London). Set your location on the main map for personalized predictions.

高度履歴

Loading altitude history...

軌道要素

1 56324U 23058H 26171.44730131 -.00000030 00000-0 18379-5 0 9995
2 56324 97.3335 171.4856 0002017 110.6648 249.4796 15.05644457173317
Epoch: Jun 20, 2026 • Age: 18 hours

現在のステータス

高度 551.1 km
速度 7.59 km/s
衛星直下点 12.54°N, 9.11°E
打ち上げ日 Apr 27, 2023
運用期間 3.1 years
タイプ internet

技術仕様

分類 Payload
質量 300.00 kg
乾燥質量 260.00 kg
総質量 300.00 kg
長さ 0.20 m
直径 2.80 m
スパン 9.00 m
形状 Box + pan
製造者 SPXS
バスタイプ Starlink
フェーズステータス In Orbit
所有者/国 SPXS/US

Most Searched